星链-30778 (STARLINK-30778 )

导读 | 豆包AI

STARLINK-30778是美国SpaceX公司星链(Starlink)星座的一颗低轨卫星,于2023年10月30日发射入轨。作为星链卫星互联网项目组成部分,它属于第二代星链卫星,配备相控阵天线,支持激光星间通信,能为全球提供高速互联网接入服务,包括手机直连、传统终端接入等多种业务,助力星链实现全球连续覆盖,进一步完善低轨卫星互联网组网。

基本信息
目录编号:
58182
目录名称:
STARLINK-30778
国际标识:
2023-167H
轨道中心:
EARTH
卫星名称:
星链-30778
卫星全名:
星链-30778 (STARLINK-30778 )
卫星状态:
在轨 (已飞行913 天)
发射日期:
2023-10-30 UTC
国别 :
美国 (US)
星等 :
--
轨道信息
数据来源 国际轨道数据 AOE轨道数据
星历时间 2026-04-30T14:17:48+0800
12小时前
查看轨道信息
2026-04-28T15:00:00+0800
2天前
查看轨道信息
半长轴 6861.196km 6861.182km
偏心率 0.0000985 0.000231
轨道倾角 42.998° 43.000°
近地点辐角 253.421° 291.814°
升交点赤经 212.039° 223.171°
平近点角 106.653° 18.165°
近地点 482.383km 481.46km
远地点 483.735km 484.63km
周期 94.267分钟 94.267分钟
每日圈数 15.275767 15.275817
详细信息
固有亮度:
5
最大亮度:
0.3
卫星平台:
Starlink v2.0 mini
覆盖范围:
全球
运营商:
太空探索技术公司
运营商所在国:
美国
制造商(研发单位):
太空探索技术公司
制造商所在国:
美国
使用方式:
暂无
卫星简介
星链(Starlink)计划是由太空探索技术公司(SpaceX)提出的一个巨型低轨卫星互联网星座项目,计划在2019年至2024年间在太空搭建由约1.2万颗卫星组成的“星链”网络,其中1584颗将部署在地球上空550千米处的近地轨道,并从2020年开始工作。该卫星仍在工作。
2D轨道图
3D轨道图
轨道高度分析图
轨道倾角分析图
轨道综合分析图
查看轨道综合分析图